Buffalo, SD

9:28 PM MST on February 19, 2018 (GMT -0700)
Buffalo

Weather History for K2WX - April, 2014

Change the Weather History Date:

Thursday, April 17, 2014

  Actual Average Record
Temperature  
Mean Temperature 40 °F 44 °F  
Max Temperature 52 °F 56 °F 84 °F (2005)
Min Temperature 28 °F 32 °F 18 °F (2013)
Degree Days  
Heating Degree Days 25 21  
Month to date heating degree days 470 408  
Since 1 July heating degree days 7636 7211  
Cooling Degree Days 0 0  
Month to date cooling degree days 0 0  
Year to date cooling degree days 0 0  
Moisture  
Dew Point 28 °F    
Average Humidity 68    
Maximum Humidity 92    
Minimum Humidity 44    
Precipitation  
Precipitation 0.04 in 0.05 in 0.48 in (2006)
Month to date precipitation 0.27 0.74  
Year to date precipitation 1.73 2.08  
Sea Level Pressure  
Sea Level Pressure 30.07 in    
Wind  
Wind Speed 17 mph (SE)    
Max Wind Speed 26 mph    
Max Gust Speed 31 mph    
T = Trace of Precipitation, MM = Missing Value Source: NWS Daily Summary

Daily Weather History Graph

Daily Weather History Graph

Search for Another Location

Airport or City:

Trip Planner

Search our weather history database for the weather conditions in past years. The results will help you decide how hot, cold, wet, or windy it might be!

Date:

Astronomy

Apr. 17, 2014 Rise Set
Actual Time 6:04 AM MDT 7:43 PM MDT
Civil Twilight 5:33 AM MDT 8:14 PM MDT
Nautical Twilight 4:55 AM MDT 8:52 PM MDT
Astronomical Twilight 4:14 AM MDT 9:33 PM MDT
Moon 10:37 PM MDT (4/17) 7:33 AM MDT (4/17)
Length of Visible Light 14h 40m
Length of Day
13h 38m
Waning Gibbous, 93% of the Moon is Illuminated
Apr 17
Waning Gibbous
Apr 22
Last Quarter
Apr 29
New
May 6
First Quarter
May 14
Full

Hourly Weather History & Observations

Time (MDT) Temp. Windchill Dew Point Humidity Pressure Visibility Wind Dir Wind Speed Gust Speed Precip Events Conditions
12:56 AM 28.9 °F 19.8 °F 25.0 °F 85% 30.19 in - ESE 10.4 mph - N/A   Unknown
1:56 AM 28.9 °F 19.8 °F 24.1 °F 82% 30.17 in - ESE 10.4 mph - N/A   Unknown
2:56 AM 28.9 °F 21.1 °F 25.0 °F 85% 30.18 in - ESE 8.1 mph - N/A   Unknown
3:56 AM 28.9 °F 18.2 °F 24.1 °F 82% 30.17 in - SE 13.8 mph - N/A   Unknown
4:56 AM 28.9 °F 17.3 °F 24.1 °F 82% 30.16 in - SE 16.1 mph - N/A   Unknown
5:56 AM 28.0 °F 16.1 °F 26.1 °F 92% 30.16 in - SE 16.1 mph - 0.03 in   Unknown
6:56 AM 28.9 °F 17.7 °F 25.0 °F 85% 30.16 in - SE 15.0 mph - 0.01 in   Unknown
7:56 AM 30.0 °F 19.1 °F 26.1 °F 85% 30.17 in - SE 15.0 mph - N/A   Unknown
8:56 AM 30.0 °F 18.3 °F 27.0 °F 88% 30.16 in - SE 17.3 mph - N/A   Unknown
9:56 AM 30.9 °F 19.1 °F 28.0 °F 89% 30.15 in - SE 18.4 mph - N/A   Unknown
11:56 AM 39.0 °F 29.0 °F 32.0 °F 76% 30.11 in - SE 20.7 mph - N/A   Unknown
12:56 PM 44.1 °F 35.7 °F 30.9 °F 60% 30.07 in - SE 20.7 mph - N/A   Unknown
1:56 PM 46.9 °F - 30.0 °F 52% 30.04 in - SSE 21.9 mph 27.6 mph N/A   Unknown
2:56 PM 48.9 °F - 30.0 °F 48% 30.02 in - SE 20.7 mph 26.5 mph N/A   Unknown
3:56 PM 51.1 °F - 30.0 °F 44% 30.00 in - SE 17.3 mph 26.5 mph N/A   Unknown
4:56 PM 52.0 °F - 30.9 °F 45% 29.96 in - SE 20.7 mph 27.6 mph N/A   Unknown
5:56 PM 51.1 °F - 30.9 °F 46% 29.95 in - SE 20.7 mph - N/A   Unknown
6:56 PM 48.9 °F - 30.9 °F 50% 29.95 in - SE 23.0 mph - N/A   Unknown
7:56 PM 45.0 °F 38.5 °F 32.0 °F 60% 29.96 in - ESE 13.8 mph - N/A   Unknown
8:56 PM 42.1 °F 35.2 °F 32.0 °F 67% 29.98 in - ESE 12.7 mph - N/A   Unknown
9:56 PM 42.1 °F 33.6 °F 30.9 °F 65% 29.96 in - SE 18.4 mph 26.5 mph N/A   Unknown
10:56 PM 39.0 °F 28.8 °F 30.0 °F 70% 29.94 in - SE 21.9 mph - N/A   Unknown
11:56 PM 37.9 °F 27.9 °F 28.9 °F 70% 29.92 in - SE 19.6 mph - N/A   Unknown